CW9687 Weather Reports


Display with metric or nautical units.
time (UTC)temp
F
wind
direction
speed
MPH
gust
MPH
rain 1hr
in
rain 24hr
in
rain mn
in
humidity
%
barometer
mb
20260831231057 70 283 3.0 13.0 0.00 0.00 0.00 83 1013.9
20260831230558 70 298 6.0 13.0 0.00 0.00 0.00 83 1013.9
20260831230111 70 310 4.0 12.0 0.00 0.00 0.00 83 1013.9
20260831225556 70 308 6.0 12.0 0.00 0.00 0.00 83 1014.1
20260831225054 69 316 6.0 11.0 0.00 0.00 0.00 83 1014.0
20260831224555 69 306 6.0 11.0 0.00 0.00 0.00 83 1014.0
20260831224054 69 313 6.0 13.0 0.00 0.00 0.00 83 1014.1
20260831223554 69 294 7.0 12.0 0.00 0.00 0.00 83 1014.1
20260831223106 69 298 5.0 13.0 0.00 0.00 0.00 83 1014.3
20260831222654 69 309 6.0 13.0 0.00 0.00 0.00 83 1014.3
20260831222054 69 300 8.0 11.0 0.00 0.00 0.00 83 1014.2
20260831221557 69 6 4.0 10.0 0.00 0.00 0.00 83 1014.2
20260831221052 69 277 3.0 14.0 0.00 0.00 0.00 83 1014.3
20260831220553 69 262 7.0 14.0 0.00 0.00 0.00 83 1014.5
20260831220052 69 285 5.0 12.0 0.00 0.00 0.00 83 1014.5
20260831215552 69 301 5.0 12.0 0.00 0.00 0.00 83 1014.5
20260831215052 69 279 6.0 15.0 0.00 0.00 0.00 83 1014.5
20260831214601 69 280 7.0 15.0 0.00 0.00 0.00 83 1014.6
20260831214051 69 306 5.0 12.0 0.00 0.00 0.00 82 1014.6
20260831213551 69 295 4.0 12.0 0.00 0.00 0.00 82 1014.6
20260831213051 69 8 4.0 11.0 0.00 0.00 0.00 83 1014.6
20260831212550 69 289 4.0 12.0 0.00 0.00 0.00 83 1014.8
20260831212049 69 297 7.0 12.0 0.00 0.00 0.00 82 1014.8
20260831211550 69 270 4.0 11.0 0.00 0.00 0.00 82 1014.8
20260831211050 69 300 6.0 12.0 0.00 0.00 0.00 82 1014.7
20260831210551 69 326 6.0 11.0 0.00 0.00 0.00 82 1014.8
20260831210049 69 312 3.0 10.0 0.00 0.00 0.00 83 1014.8
20260831205550 69 321 3.0 10.0 0.00 0.00 0.00 82 1014.8
20260831205048 69 260 4.0 13.0 0.00 0.00 0.00 82 1014.8
20260831204547 69 293 4.0 13.0 0.00 0.00 0.00 82 1014.8
20260831204046 69 323 6.0 14.0 0.00 0.00 0.00 82 1014.8
20260831203545 69 304 6.0 14.0 0.00 0.00 0.00 82 1014.8
20260831203144 69 283 5.0 13.0 0.00 0.00 0.00 82 1014.8
20260831202545 69 286 6.0 13.0 0.00 0.00 0.00 82 1014.7
20260831202044 69 274 5.0 11.0 0.00 0.00 0.00 82 1014.7
20260831201544 69 253 4.0 11.0 0.00 0.00 0.00 82 1014.7
20260831201042 69 306 5.0 12.0 0.00 0.00 0.00 82 1014.8
20260831200542 69 283 6.0 14.0 0.00 0.00 0.00 81 1014.8
20260831200046 69 302 7.0 12.0 0.00 0.00 0.00 81 1014.9
20260831195540 68 325 3.0 11.0 0.00 0.00 0.00 81 1014.9
20260831195040 68 303 5.0 11.0 0.00 0.00 0.00 81 1015.0
20260831194558 68 324 3.0 12.0 0.00 0.00 0.00 81 1015.1
20260831194040 68 273 5.0 10.0 0.00 0.00 0.00 81 1015.1
20260831193539 68 2 3.0 10.0 0.00 0.00 0.00 81 1015.2
20260831193040 68 304 2.0 11.0 0.00 0.00 0.00 81 1015.2
20260831192538 68 302 5.0 9.0 0.00 0.00 0.00 81 1015.2
20260831192036 67 317 5.0 10.0 0.00 0.00 0.00 80 1015.2
20260831191536 67 302 5.0 11.0 0.00 0.00 0.00 80 1015.4
20260831191040 67 289 6.0 11.0 0.00 0.00 0.00 80 1015.4
20260831190535 67 304 5.0 9.0 0.00 0.00 0.00 80 1015.5
20260831190035 67 312 3.0 9.0 0.00 0.00 0.00 80 1015.5
20260831185533 67 6 3.0 10.0 0.00 0.00 0.00 80 1015.4
20260831185032 66 348 1.0 11.0 0.00 0.00 0.00 79 1015.5
20260831184531 66 293 5.0 11.0 0.00 0.00 0.00 79 1015.4
20260831184029 66 4 1.0 8.0 0.00 0.00 0.00 79 1015.5
20260831183530 66 285 1.0 9.0 0.00 0.00 0.00 79 1015.6
20260831183029 65 304 3.0 7.0 0.00 0.00 0.00 78 1015.5
20260831182526 65 346 1.0 6.0 0.00 0.00 0.00 79 1015.6
20260831182025 64 325 0.0 5.0 0.00 0.00 0.00 78 1015.8
20260831181522 64 331 3.0 5.0 0.00 0.00 0.00 78 1015.7
20260831181021 63 285 0.0 3.0 0.00 0.00 0.00 79 1015.8
20260831180520 62 308 0.0 6.0 0.00 0.00 0.00 79 1015.8
20260831180001 62 299 1.0 6.0 0.00 0.00 0.00 79 1015.8
20260831175600 61 177 0.0 2.0 0.00 0.00 0.00 80 1015.8
20260831175026 61 177 0.0 2.0 0.00 0.00 0.00 79 1015.8
20260831174527 61 166 0.0 4.0 0.00 0.00 0.00 79 1015.7
20260831174025 60 167 1.0 4.0 0.00 0.00 0.00 80 1015.7
20260831173525 60 172 0.0 0.0 0.00 0.00 0.00 80 1015.6
20260831173021 60 82 0.0 4.0 0.00 0.00 0.00 80 1015.6
20260831172520 60 82 1.0 4.0 0.00 0.00 0.00 80 1015.6
20260831172015 60 19 0.0 4.0 0.00 0.00 0.00 80 1015.6
20260831171518 59 19 0.0 4.0 0.00 0.00 0.00 80 1015.6
20260831171013 59 356 0.0 3.0 0.00 0.00 0.00 80 1015.5
20260831170512 59 356 0.0 4.0 0.00 0.00 0.00 80 1015.5
20260831170027 59 354 0.0 4.0 0.00 0.00 0.00 80 1015.6
20260831165513 59 288 1.0 2.0 0.00 0.00 0.00 80 1015.5
20260831165008 59 213 0.0 0.0 0.00 0.00 0.00 80 1015.5
20260831164511 59 213 0.0 0.0 0.00 0.00 0.00 80 1015.5
20260831164010 58 213 0.0 0.0 0.00 0.00 0.00 80 1015.4
20260831163505 58 213 0.0 0.0 0.00 0.00 0.00 80 1015.4
20260831163005 58 213 0.0 0.0 0.00 0.00 0.00 80 1015.3
20260831162507 58 213 0.0 3.0 0.00 0.00 0.00 80 1015.4
20260831162003 58 213 0.0 3.0 0.00 0.00 0.00 80 1015.3
20260831161501 58 213 0.0 0.0 0.00 0.00 0.00 80 1015.3
20260831161001 58 113 0.0 1.0 0.00 0.00 0.00 80 1015.3
20260831160500 58 113 0.0 1.0 0.00 0.00 0.00 80 1015.2
20260831160100 58 113 0.0 0.0 0.00 0.00 0.00 80 1015.2
20260831155559 58 113 0.0 2.0 0.00 0.00 0.00 80 1015.1
20260831155058 57 113 0.0 2.0 0.00 0.00 0.00 80 1015.1
20260831154559 57 327 0.0 0.0 0.00 0.00 0.00 80 1015.2
20260831154157 57 327 0.0 0.0 0.00 0.00 0.00 80 1015.1
20260831153554 57 327 0.0 0.0 0.00 0.00 0.00 80 1015.1
20260831153057 57 327 0.0 0.0 0.00 0.00 0.00 80 1015.1
20260831152554 57 327 0.0 0.0 0.00 0.00 0.00 80 1015.1
20260831152051 57 327 0.0 0.0 0.00 0.00 0.00 80 1015.1
20260831151601 57 327 0.0 0.0 0.00 0.00 0.00 80 1015.1
20260831151050 57 327 0.0 0.0 0.00 0.00 0.00 80 1015.0
20260831150549 57 327 0.0 0.0 0.00 0.00 0.00 80 1015.0
20260831150048 57 327 0.0 0.0 0.00 0.00 0.00 80 1014.9
20260831145547 57 327 0.0 4.0 0.00 0.00 0.00 80 1014.9
20260831145046 57 327 0.0 8.0 0.00 0.00 0.00 80 1014.9
20260831144546 57 323 0.0 8.0 0.00 0.00 0.00 80 1014.8
20260831144047 57 339 1.0 5.0 0.00 0.00 0.00 80 1014.8
20260831143545 57 323 1.0 5.0 0.00 0.00 0.00 80 1014.7
20260831143045 57 348 0.0 4.0 0.00 0.00 0.00 80 1014.7
20260831142543 57 325 0.0 4.0 0.00 0.00 0.00 80 1014.7
20260831142042 57 325 0.0 1.0 0.00 0.00 0.00 80 1014.6
20260831141543 57 325 0.0 2.0 0.00 0.00 0.00 80 1014.6
20260831141045 57 333 0.0 2.0 0.00 0.00 0.00 80 1014.5
20260831140535 57 330 0.0 4.0 0.00 0.00 0.00 80 1014.4
20260831140046 57 330 0.0 4.0 0.00 0.00 0.00 80 1014.4
20260831135534 57 330 0.0 3.0 0.00 0.00 0.00 80 1014.2
20260831135033 57 329 0.0 1.0 0.00 0.00 0.00 80 1014.1
20260831134538 57 329 0.0 1.0 0.00 0.00 0.00 80 1013.9
20260831134033 57 330 0.0 0.0 0.00 0.00 0.00 80 1013.8
20260831133534 57 330 0.0 0.0 0.00 0.00 0.00 80 1013.7
20260831133034 57 330 0.0 0.0 0.00 0.00 0.00 80 1013.7
20260831132532 57 330 0.0 0.0 0.00 0.00 0.00 80 1013.9
20260831132032 57 329 0.0 2.0 0.00 0.00 0.00 80 1013.7
20260831131531 57 330 0.0 4.0 0.00 0.00 0.00 80 1013.7
20260831131035 57 330 0.0 4.0 0.00 0.00 0.00 80 1013.8
20260831130532 57 330 1.0 4.0 0.00 0.00 0.00 80 1013.9
20260831130031 57 69 0.0 0.0 0.00 0.00 0.00 80 1014.0
20260831125533 57 70 0.0 0.0 0.00 0.00 0.00 80 1014.0
20260831125031 57 70 0.0 0.0 0.00 0.00 0.00 80 1013.9
20260831124530 57 70 0.0 0.0 0.00 0.00 0.00 80 1013.9
20260831124030 57 70 0.0 0.0 0.00 0.00 0.00 80 1013.8
20260831123530 57 70 0.0 0.0 0.00 0.00 0.00 80 1013.7
20260831123036 57 70 0.0 0.0 0.00 0.00 0.00 80 1013.6
20260831122529 57 70 0.0 0.0 0.00 0.00 0.00 80 1013.5
20260831122031 57 70 0.0 0.0 0.00 0.00 0.00 80 1013.4
20260831121539 57 70 0.0 0.0 0.00 0.00 0.00 80 1013.4
20260831121029 57 70 0.0 0.0 0.00 0.00 0.00 80 1013.4
20260831120527 57 70 0.0 0.0 0.00 0.00 0.00 80 1013.4
20260831120027 57 70 0.0 0.0 0.00 0.00 0.00 80 1013.4
20260831115528 57 70 0.0 0.0 0.00 0.00 0.00 80 1013.4
20260831115028 57 70 0.0 0.0 0.00 0.00 0.00 80 1013.5
20260831114528 57 70 0.0 0.0 0.00 0.00 0.00 80 1013.4
20260831114028 57 70 0.0 0.0 0.00 0.00 0.00 80 1013.4
20260831113532 57 70 0.0 0.0 0.00 0.00 0.00 80 1013.4
20260831113027 57 70 0.0 0.0 0.00 0.00 0.00 80 1013.4
20260831112528 57 70 0.0 0.0 0.00 0.00 0.00 80 1013.3
20260831112030 57 70 0.0 0.0 0.00 0.00 0.00 80 1013.4
20260831111525 57 70 0.0 0.0 0.00 0.00 0.00 80 1013.5
20260831111025 57 70 0.0 0.0 0.00 0.00 0.00 81 1013.4
20260831110524 56 70 0.0 0.0 0.00 0.00 0.00 81 1013.5
20260831110025 56 70 0.0 0.0 0.00 0.00 0.00 81 1013.4
20260831105528 56 70 0.0 0.0 0.00 0.00 0.00 81 1013.5
20260831105023 56 70 0.0 0.0 0.00 0.00 0.00 81 1013.6
20260831104525 56 70 0.0 0.0 0.00 0.00 0.00 81 1013.5
20260831104023 56 70 0.0 0.0 0.00 0.00 0.00 81 1013.6
20260831103524 56 70 0.0 0.0 0.00 0.00 0.00 81 1013.5
20260831103022 56 70 0.0 0.0 0.00 0.00 0.00 81 1013.5
20260831102526 56 70 0.0 0.0 0.00 0.00 0.00 81 1013.5
20260831102027 56 70 0.0 0.0 0.00 0.00 0.00 81 1013.6
20260831101521 56 70 0.0 0.0 0.00 0.00 0.00 81 1013.6
20260831101022 56 70 0.0 0.0 0.00 0.00 0.00 81 1013.5
20260831100520 56 70 0.0 0.0 0.00 0.00 0.00 81 1013.5
20260831100026 56 70 0.0 0.0 0.00 0.00 0.00 81 1013.6
20260831095520 56 70 0.0 0.0 0.00 0.00 0.00 81 1013.6
20260831095019 56 70 0.0 0.0 0.00 0.00 0.00 81 1013.6
20260831094525 56 70 0.0 0.0 0.00 0.00 0.00 81 1013.6
20260831094022 56 70 0.0 0.0 0.00 0.00 0.00 81 1013.6
20260831093518 56 70 0.0 0.0 0.00 0.00 0.00 81 1013.6
20260831093019 56 70 0.0 0.0 0.00 0.00 0.00 81 1013.7
20260831092519 56 70 0.0 0.0 0.00 0.00 0.00 81 1013.7
20260831092015 55 70 0.0 0.0 0.00 0.00 0.00 82 1013.7
20260831091516 55 70 0.0 0.0 0.00 0.00 0.00 82 1013.7
20260831091015 55 70 0.0 0.0 0.00 0.00 0.00 82 1013.7
20260831090515 55 70 0.0 0.0 0.00 0.00 0.00 82 1013.7
20260831090015 55 70 0.0 0.0 0.00 0.00 0.00 82 1013.7
20260831085514 55 70 0.0 0.0 0.00 0.00 0.00 82 1013.7
20260831085015 55 70 0.0 0.0 0.00 0.00 0.00 82 1013.7
20260831084522 54 70 0.0 0.0 0.00 0.00 0.00 82 1013.7
20260831084013 54 70 0.0 0.0 0.00 0.00 0.00 82 1013.8
20260831083513 54 70 0.0 0.0 0.00 0.00 0.00 82 1013.7
20260831083031 54 70 0.0 0.0 0.00 0.00 0.00 82 1013.9
20260831082512 54 70 0.0 0.0 0.00 0.00 0.00 82 1013.9
20260831082012 54 70 0.0 0.0 0.00 0.00 0.00 82 1013.9
20260831081512 54 70 0.0 0.0 0.00 0.00 0.00 82 1014.0
20260831081011 54 70 0.0 0.0 0.00 0.00 0.00 82 1014.0
20260831080510 54 70 0.0 0.0 0.00 0.00 0.00 83 1014.0
20260831080023 55 70 0.0 0.0 0.00 0.00 0.00 83 1014.0
20260831075509 55 70 0.0 0.0 0.00 0.00 0.00 83 1014.0
20260831075010 55 70 0.0 0.0 0.00 0.00 0.00 83 1014.1
20260831074513 55 70 0.0 1.0 0.00 0.00 0.00 83 1014.1
20260831074009 55 70 0.0 1.0 0.00 0.00 0.00 83 1014.1
20260831073508 55 60 0.0 0.0 0.00 0.00 0.00 83 1014.0
20260831073016 55 44 0.0 0.0 0.00 0.00 0.00 83 1013.9
20260831072507 55 44 0.0 0.0 0.00 0.00 0.00 83 1014.0
20260831072006 55 44 0.0 0.0 0.00 0.00 0.00 83 1013.9
20260831071505 55 44 0.0 0.0 0.00 0.00 0.00 83 1014.0
20260831071006 55 44 0.0 0.0 0.00 0.00 0.00 83 1014.0
20260831070503 56 44 0.0 0.0 0.00 0.00 0.00 83 1013.9
20260831070006 56 44 0.0 0.0 0.00 0.00 0.00 83 1013.8
20260831065506 56 44 0.0 0.0 0.00 0.00 0.00 83 1013.9
20260831065003 56 44 0.0 0.0 0.00 0.00 0.00 83 1013.8
20260831064503 56 44 0.0 0.0 0.00 0.00 0.00 83 1013.9
20260831064003 56 44 0.0 0.0 0.00 0.00 0.00 83 1013.8
20260831063502 56 44 0.0 0.0 0.00 0.00 0.00 83 1013.9
20260831063002 56 44 0.0 0.0 0.00 0.00 0.00 83 1013.9
20260831062501 56 44 0.0 0.0 0.00 0.00 0.00 83 1013.9
20260831062001 56 44 0.0 0.0 0.00 0.00 0.00 83 1014.0
20260831061601 56 44 0.0 0.0 0.00 0.00 0.00 83 1014.0
20260831061101 56 44 0.0 1.0 0.00 0.00 0.00 83 1014.0
20260831060600 57 44 0.0 1.0 0.00 0.00 0.00 83 1014.0
20260831055600 57 44 0.0 3.0 0.00 0.00 0.00 83 1014.1
20260831055102 57 44 0.0 2.0 0.00 0.00 0.00 83 1014.0
20260831054603 57 44 0.0 2.0 0.00 0.00 0.00 83 1014.0
20260831054100 57 44 0.0 2.0 0.00 0.00 0.00 83 1014.1
20260831053604 57 44 0.0 2.0 0.00 0.00 0.00 83 1014.1
20260831053100 57 44 0.0 0.0 0.00 0.00 0.00 83 1014.2
20260831052600 57 44 0.0 1.0 0.00 0.00 0.00 83 1014.1
20260831052058 57 44 0.0 5.0 0.00 0.00 0.00 84 1014.2
20260831051600 57 44 0.0 5.0 0.00 0.00 0.00 83 1014.1
20260831051059 57 69 0.0 0.0 0.00 0.00 0.00 83 1014.2
20260831050559 58 69 0.0 0.0 0.00 0.00 0.00 83 1014.1
20260831050052 58 69 0.0 1.0 0.00 0.00 0.00 84 1014.2
20260831045552 58 69 0.0 2.0 0.00 0.00 0.00 84 1014.2
20260831045052 58 69 0.0 3.0 0.00 0.00 0.00 84 1014.2
20260831044556 58 69 0.0 4.0 0.00 0.00 0.00 84 1014.2
20260831044051 58 69 0.0 4.0 0.00 0.00 0.00 84 1014.2
20260831043551 58 50 0.0 5.0 0.00 0.00 0.00 84 1014.0
20260831043051 58 52 0.0 4.0 0.00 0.00 0.00 84 1014.0
20260831042553 58 61 0.0 4.0 0.00 0.00 0.00 84 1014.0
20260831042050 58 59 0.0 5.0 0.00 0.00 0.00 84 1014.0
20260831041600 59 59 0.0 5.0 0.00 0.00 0.00 85 1013.9
20260831041053 59 68 0.0 6.0 0.00 0.00 0.00 85 1013.8
20260831040551 59 50 1.0 6.0 0.00 0.00 0.00 85 1013.8
20260831040044 59 38 0.0 5.0 0.00 0.00 0.00 85 1013.8
20260831035546 59 35 0.0 5.0 0.00 0.00 0.00 85 1013.8
20260831035043 59 26 0.0 5.0 0.00 0.00 0.00 85 1013.7
20260831034543 60 62 0.0 5.0 0.00 0.00 0.00 85 1013.6
20260831034043 60 56 1.0 5.0 0.00 0.00 0.00 85 1013.5
20260831033543 60 48 1.0 6.0 0.00 0.00 0.00 86 1013.4
20260831033043 60 52 1.0 7.0 0.00 0.00 0.00 86 1013.3
20260831032542 60 33 1.0 7.0 0.00 0.00 0.00 86 1013.3
20260831032041 61 58 0.0 3.0 0.00 0.00 0.00 86 1013.3
20260831031541 61 58 0.0 5.0 0.00 0.00 0.00 86 1013.2
20260831031045 61 45 0.0 6.0 0.00 0.00 0.00 86 1013.1
20260831030543 61 51 2.0 6.0 0.00 0.00 0.00 86 1013.1
20260831030023 62 41 2.0 6.0 0.00 0.00 0.00 86 1013.1
20260831025524 62 55 1.0 5.0 0.00 0.00 0.00 86 1013.0
20260831025024 62 56 0.0 5.0 0.00 0.00 0.00 86 1013.0
20260831024527 63 19 2.0 5.0 0.00 0.00 0.00 86 1013.1
20260831024023 63 35 1.0 5.0 0.00 0.00 0.00 86 1013.0
20260831023525 63 36 0.0 7.0 0.00 0.00 0.00 86 1013.1
20260831023022 64 83 1.0 7.0 0.00 0.00 0.00 86 1012.9
20260831022521 64 67 2.0 5.0 0.00 0.00 0.00 86 1012.9
20260831022021 64 62 1.0 5.0 0.00 0.00 0.00 86 1013.0
20260831021532 65 58 1.0 5.0 0.00 0.00 0.00 86 1013.0
20260831021021 65 46 1.0 5.0 0.00 0.00 0.00 86 1013.0
20260831020521 66 71 0.0 3.0 0.00 0.00 0.00 85 1013.0
20260831020108 66 358 0.0 6.0 0.00 0.00 0.00 85 1012.9
20260831015557 66 348 0.0 6.0 0.00 0.00 0.00 86 1013.0
20260831015057 66 91 3.0 7.0 0.00 0.00 0.00 86 1013.0
20260831014610 67 85 1.0 6.0 0.00 0.00 0.00 86 1013.0
20260831014056 67 275 0.0 0.0 0.00 0.00 0.00 85 1012.9
20260831013556 67 257 0.0 2.0 0.00 0.00 0.00 85 1012.9
20260831013057 67 257 0.0 3.0 0.00 0.00 0.00 85 1012.8
20260831012555 67 281 0.0 6.0 0.00 0.00 0.00 85 1012.9
20260831012054 67 264 0.0 6.0 0.00 0.00 0.00 85 1012.9
20260831011610 67 246 0.0 6.0 0.00 0.00 0.00 85 1012.8
20260831011054 68 248 1.0 6.0 0.00 0.00 0.00 85 1012.9
20260831010554 68 250 1.0 8.0 0.00 0.00 0.00 85 1012.9
20260831010054 68 272 2.0 8.0 0.00 0.00 0.00 85 1012.8
20260831005556 68 259 3.0 8.0 0.00 0.00 0.00 85 1012.9
20260831005058 69 261 2.0 6.0 0.00 0.00 0.00 85 1012.8
20260831004555 69 234 2.0 6.0 0.00 0.00 0.00 85 1012.8
20260831004053 69 270 2.0 8.0 0.00 0.00 0.00 85 1012.8
20260831003554 69 286 3.0 8.0 0.00 0.00 0.00 85 1012.8
20260831003056 69 231 2.0 6.0 0.00 0.00 0.00 84 1012.8
20260831002557 69 251 2.0 8.0 0.00 0.00 0.00 84 1012.8
20260831002053 70 250 2.0 8.0 0.00 0.00 0.00 84 1012.8
20260831001602 70 272 4.0 8.0 0.00 0.00 0.00 84 1012.8
20260831001052 70 264 3.0 10.0 0.00 0.00 0.00 84 1012.8
20260831000552 70 263 6.0 10.0 0.00 0.00 0.00 84 1012.7
20260831000052 70 271 2.0 9.0 0.00 0.00 0.00 84 1012.7
20260830235551 71 269 4.0 9.0 0.00 0.00 0.00 84 1012.7
20260830235051 71 267 4.0 10.0 0.00 0.00 0.00 83 1012.7
20260830234551 71 279 4.0 10.0 0.00 0.00 0.00 83 1012.6
20260830234050 71 254 5.0 10.0 0.00 0.00 0.00 83 1012.7
20260830233551 72 288 5.0 10.0 0.00 0.00 0.00 83 1012.7
20260830233053 72 256 3.0 8.0 0.00 0.00 0.00 83 1012.7
20260830232551 72 304 5.0 9.0 0.00 0.00 0.00 83 1012.7
20260830232049 72 227 2.0 9.0 0.00 0.00 0.00 82 1012.7
20260830231550 72 252 1.0 10.0 0.00 0.00 0.00 82 1012.8